Location: Newark
(47.5347°N, 5.5339°E)
Time: 20:18:23
(UTC+00:00)

ISS - Pass Details

Date: 27 September 2019
Orbit: 411 x 421 km, 51.6° (Epoch: 21 October)

Event Time Altitude Azimuth Distance (km) Brightness Sun altitude
Rises 18:29:39 0° 269° (W) 2,343 1.9 -11.5°
Reaches altitude 10° 18:31:48 10° 276° (W) 1,481 0.6 -11.9°
Maximum altitude 18:35:00 43° 350° (N) 587 -2.9 -12.4°
Enters shadow 18:37:26 16° 59° (ENE) 1,189 -1.9 -12.8°
